N0MR Weather Reports


time (UTC)temp
C
wind
direction
speed
KPH
gust
KPH
rain 1hr
cm
rain 24hr
cm
rain mn
cm
humidity
%
barometer
mb
20260504160152 7 311 12.9 25.7 0.00 0.05 0.05 67 992.2
20260504150152 8 294 9.7 20.9 0.00 0.05 0.05 72 990.9
20260504141152 7 210 1.6 22.5 0.00 0.05 0.05 86 990.1
20260504140152 7 299 6.4 19.3 0.00 0.05 0.05 86 990.2
20260504130154 6 294 1.6 14.5 0.05 0.05 0.05 89 989.5
20260504120154 8 319 6.4 16.1 0.00 0.00 0.00 80 989.5
20260504110153 10 279 8.0 25.7 0.00 0.00 0.00 66 989.0
20260504100155 13 236 6.4 30.6 0.00 0.00 0.00 42 988.2
20260504081155 14 242 6.4 32.2 0.00 0.00 0.00 38 990.3
20260504080156 14 242 6.4 32.2 0.00 0.00 0.00 38 990.3
20260504070156 13 234 9.7 24.1 0.00 0.00 0.00 39 992.7
20260504060156 13 246 12.9 24.1 0.00 0.00 0.00 37 994.2
20260504050157 13 227 14.5 32.2 0.00 0.00 0.00 36 995.4
20260504045157 13 227 14.5 32.2 0.00 0.00 0.00 36 995.4
20260504044156 13 239 19.3 22.5 0.00 0.00 0.00 36 995.9
20260504043157 13 235 6.4 29.0 0.00 0.03 0.03 36 996.4
20260504042156 13 235 6.4 29.0 0.00 0.03 0.03 36 996.4
20260504041156 13 234 9.7 19.3 0.00 0.03 0.00 37 997.1
20260504040157 13 234 9.7 19.3 0.00 0.03 0.00 37 997.1
20260504035157 12 244 9.7 12.9 0.00 0.03 0.00 39 997.7
20260504034157 12 244 9.7 12.9 0.00 0.03 0.00 39 997.7
20260504033156 11 235 3.2 11.3 0.00 0.03 0.03 41 998.2
20260504032156 11 235 3.2 11.3 0.00 0.03 0.03 41 998.2
20260504031158 11 238 1.6 11.3 0.00 0.03 0.00 42 998.6
20260504030157 11 238 1.6 11.3 0.00 0.03 0.00 42 998.6
20260504025157 11 232 0.0 4.8 0.00 0.03 0.00 42 998.9
20260504024157 11 232 0.0 4.8 0.00 0.03 0.00 42 998.9
20260504023157 11 232 0.0 0.0 0.00 0.03 0.03 43 999.1
20260504022157 11 232 0.0 0.0 0.00 0.03 0.03 43 999.1
20260504021157 11 232 0.0 0.0 0.00 0.03 0.00 41 999.5
20260504020157 11 232 0.0 0.0 0.00 0.03 0.00 41 999.5
20260504015158 12 232 0.0 0.0 0.00 0.03 0.00 39 999.8
20260504014158 12 232 0.0 0.0 0.00 0.03 0.00 39 999.8
20260504013157 13 232 0.0 6.4 0.00 0.03 0.03 36 1000.2
20260504012158 14 239 0.0 12.9 0.00 0.03 0.03 34 1000.5
20260504011157 14 239 0.0 12.9 0.00 0.03 0.03 34 1000.5
20260504010157 15 281 1.6 9.7 0.00 0.03 0.00 33 1000.8
20260504005157 15 281 1.6 9.7 0.00 0.03 0.00 33 1000.8
20260504004157 15 194 1.6 11.3 0.00 0.03 0.03 33 1001.0
20260503222159 17 242 6.4 16.1 0.00 0.03 0.03 28 1001.7
20260503215159 17 246 3.2 17.7 0.00 0.03 0.00 28 1001.8
20260503214201 17 246 3.2 17.7 0.00 0.03 0.00 28 1001.8
20260503205159 17 109 9.7 20.9 0.00 0.03 0.00 27 1002.3
20260503204158 17 109 9.7 20.9 0.00 0.03 0.00 27 1002.3
20260503203159 17 233 11.3 16.1 0.00 0.03 0.03 25 1002.4
20260503202159 17 233 11.3 16.1 0.00 0.03 0.03 25 1002.4
20260503201159 16 33 6.4 19.3 0.00 0.03 0.00 24 1002.7
20260503200200 16 33 6.4 19.3 0.00 0.03 0.00 24 1002.7
20260503180159 16 176 3.2 25.7 0.00 0.03 0.00 27 1003.6
20260503175158 16 176 3.2 25.7 0.00 0.03 0.00 27 1003.6
20260503174159 15 317 6.4 20.9 0.00 0.03 0.03 26 1003.8
20260503173159 15 317 6.4 20.9 0.00 0.03 0.03 26 1003.8
20260503172158 15 241 3.2 22.5 0.00 0.03 0.03 25 1003.8
20260503171159 15 241 3.2 22.5 0.00 0.03 0.03 25 1003.8
20260503170158 16 284 6.4 17.7 0.00 0.03 0.00 24 1003.8